Location: *
(51.0333°S, 178.4667°E)
Time: 04:03:27
(UTC+00:00)

ARGOS - Pass Details

Date: 15 November 2019
Orbit: 819 x 835 km, 98.5° (Epoch: 10 December)

Event Time Altitude Azimuth Distance (km) Brightness Sun altitude
Rises 08:55:37 0° 164° (SSE) 3,416 6.8 -10.6°
Reaches altitude 10° 08:58:01 10° 161° (SSE) 2,478 6.0 -10.9°
Maximum altitude 09:03:31 68° 78° (ENE) 912 3.2 -11.5°
Drops below altitude 10° 09:08:57 10° 354° (N) 2,456 5.2 -12.0°
Enters shadow 09:10:11 - 352° (N) 2,939 5.6 -12.1°
